BeeSat 9 (44412 NORAD) Tracking and Keplerian Element Data

This shows tracking and keplerian element data for the satellite.

Feedback or suggestion? Click here.




ElementValue
Catalog44412
NameBeeSat 9
Epoch Orbit26791
Epoch Day125.53799353
Epoch Year2024
RAAN129.4845
Inclination97.6778
Eccentricity0.0009475
Argument of Perigee176.575
Mean Anonmoly183.5581
Mean Motion15.76236983
Decay Rate0.00219881
L11 44412U 19038AC 24125.53799353 .00219881 00000-0 13703-2 0 9999
L22 44412 97.6778 129.4845 0009475 176.5750 183.5581 15.76236983267916



Live tracking and technical data element details for BeeSat 9 (NORAD 44412). BeeSat 9 can be tracked NOW for your location showing map with azimuth and elevation plus other details from your city location.







IsCatalogInMostPopularTable: catalog: 44412, numindb: 276
Update: records affected: 1



GetName: 44412 BeeSat 9

Hit Count: updated at: Thu, 23 Jan 2025 17:59:03 GMT